Tracking 19484 objects as of 20-Jan-2019
HD Live streaming from Space Station
objects crossing your sky now

FENGYUN 1C DEB

Track FENGYUN 1C DEB now!
10-day predictions


NORAD ID: 31714
Int'l Code: 1999-025CDM
Perigee: 782.1 km
Apogee: 868.0 km
Inclination: 99.0 °
Period: 101.3 minutes
Semi major axis: 7196 km
RCS: 0.0102 m2 (small)
Launch date: May 10, 1999
Source: People's Republic of China (PRC)
Launch site: Taiyaun Space Center, China (TSC)

Note: This is SATELLITE DEBRIS
aabbcc
Your satellite tracking list
Your tracking list is empty




NASA's NSSDC Master Catalog

Two Line Element Set (TLE):
1 31714U 99025CDM 19019.24503980  .00000961  00000-0  44608-3 0  9993
2 31714  99.0406 124.6961 0059629 109.4402 304.3812 14.22200887599655
Source of the keplerian elements: AFSPC